www.pogodaiklimat.ru

Погода и климат >> Архив погоды >> Азербайджан >> Губа


ПОГОДА в Губе

  • Прогноз погоды в Губе
  • Монитор погоды в Губе

АРХИВ ПОГОДЫ в Губе

Время (UTC), дата Ветер
(напр.,м/с)
 
Видим.   Явления Облачность Т
(С)
Тd
(С)
f
(%)
Тe
(С)
Тes
(С)
Комфортность P
(гПа)
Po
(гПа)
Тmin
(С)
Tmax
(С)
R
(мм)
R24
(мм)
S
(см)
12 11.07 В 3 50 км ясно +27.3 +18.6 59 +32 +42 очень
душно
1000.3 940.3
15 11.07 В 2 50 км ясно +25.9 +20.4 72 +32 +33 очень
душно
1000.1 939.9
18 11.07 Ю 2 2000 м ясно +23.4 +20.2 82 +31 +31 очень
душно
1000.6 939.9 +27.9
21 11.07 З 2 2000 м ясно +22.1 +19.2 84 +28 +28 душно 1000.2 939.3
00 12.07 З 2 2000 м ясно +22.0 +18.1 79 +27 +27 душно 1000.3 939.3
03 12.07 штиль 0 50 км 6/0
[Ci sp]
+23.2 +17.3 69 +28 +30 душно 999.6 938.8
06 12.07 В 3 50 км ясно +24.8 +18.3 67 +29 +40 душно 998.2 938.5 +20.7
09 12.07 ЮВ 3 10 км 6/6 600 м
[Cu med, cong]
+29.7 +20.7 58 +37 +43 очень
душно
997.1 937.8
12 12.07 С 6 2000 м 10/10 600 м
[Cb cap]
+24.4 +20.9 81 +31 +31 очень
душно
997.3 937.0
15 12.07 С 3 2000 м 10/0 300 м
[As op]
+20.2 +18.6 91 +24 +24 комфорт 1002.6 941.1
18 12.07 З 1 2000 м {дождь} 10/0 300 м
[As op]
+20.0 +18.7 92 +24 +24 комфорт 1006.4 944.5 +30.0 0.3
21 12.07 З 2 2000 м гроза, пыльная буря {дождь} 10/10 600 м
[Cb cap]
+18.5 +17.2 92 +20 +20 1008.2 946.0
00 13.07 штиль 0 2000 м {гроза} 10/10 600 м
[Cb cap]
+17.1 +15.3 89 +17 +17 1008.3 945.6
03 13.07 СВ 3 2000 м слаб. дождь 10/0 300 м
[As op]
+16.3 +15.4 94 +16 +16 1009.4 946.5
06 13.07 С 1 2000 м слаб. дождь 10/0 300 м
[As op]
+16.1 +15.2 94 +17 +20 1009.6 946.6 +16.2 2
09 13.07 С 1 2000 м 10/0 300 м
[As op]
+17.1 +14.7 86 +18 +23 1009.4 946.6
12 13.07 СЗ 2 2000 м {дождь} 10/0 300 м
[As op]
+17.6 +15.1 85 +18 +20 1009.0 946.4
15 13.07 СЗ 2 2000 м 10/0 300 м
[As op]
+17.0 +14.4 85 +17 +17 1009.9 947.1
18 13.07 штиль 0 2000 м 6/6 600 м
[Sc]
+17.2 +14.4 84 +17 +17 1010.7 947.9 +20.4 0.6
21 13.07 штиль 0 2000 м гроза, пыльная буря {дождь} 10/10 600 м
[Cb cap]
+17.4 +14.3 82 +17 +17 1010.2 947.5
00 14.07 СЗ 1 2000 м 9/9 600 м
[Sc]
+17.3 +13.6 79 +18 +18 1010.7 947.9
03 14.07 штиль 0 10 км 9/9 600 м
[Sc]
+16.9 +13.1 78 +17 +17 1010.8 947.9
06 14.07 штиль 0 2000 м {дождь} 10/0 300 м
[As op]
+16.8 +14.2 85 +17 +20 1011.2 948.3 +16.8
09 14.07 штиль 0 10 км 8/8 600 м
[Cu med, cong]
+21.4 +13.6 61 +24 +29 комфорт 1009.0 947.2
12 14.07 штиль 0 10 км 9/9 600 м
[Sc]
+18.5 +14.3 77 +19 +21 1010.7 948.2
15 14.07 штиль 0 10 км 9/9 600 м
[Sc]
+17.5 +13.4 77 +17 +18 1012.2 949.4
18 14.07 штиль 0 2000 м 9/9 600 м
[Sc]
+17.4 +13.7 79 +17 +17 1012.5 949.7 +23.4 0.3
21 14.07 штиль 0 2000 м ясно +14.6 +12.6 88 +14 +14 1011.8 948.4
00 15.07 штиль 0 2000 м 8/8 600 м
[Sc]
+14.8 +12.2 84 +15 +15 1010.6 947.3
03 15.07 штиль 0 10 км 6/6 600 м
[Cb cap]
+14.8 +11.9 83 +15 +16 1010.0 946.7
06 15.07 В 3 10 км 6/6 600 м
[Cb cap]
+18.3 +14.5 79 +19 +23 1008.8 946.4 +14.2
09 15.07 ЮВ 1 2000 м 10/0 300 м
[As op]
+18.5 +7.4 48 +20 +25 1007.4 945.1
12 15.07 штиль 0 2000 м слаб. дождь {метель} 10/0 300 м
[As op]
+18.1 +17.6 97 +18 +21 1005.3 943.1
15 15.07 З 1 2000 м {дождь} 10/0 300 м
[As op]
+18.8 +17.7 93 +21 +21 комфорт 1005.1 942.2
18 15.07 В 2 2000 м {дождь} 10/0 300 м
[As op]
+18.0 +16.7 92 +19 +19 1004.5 942.4 +19.0 2
21 15.07 штиль 0 2000 м 10/0
[As op]
+17.5 +16.5 94 +17 +17 1005.1 942.4
00 16.07 штиль 0 2000 м ясно +16.3 +15.1 93 +16 +16 1004.2 940.9
03 16.07 СЗ 2 2000 м 10/0 300 м
[As op]
+18.0 +16.2 89 +19 +19 1005.2 942.9
06 16.07 СЗ 1 10 км 9/9 600 м
[Sc]
+21.7 +16.9 74 +26 +27 душно 1004.5 943.1 +16.2
09 16.07 В 2 50 км 1/1 1000 м
[Cu med, cong Ci fib]
+27.1 +16.7 53 +31 +48 душно 1002.5 942.3
12 16.07 В 3 50 км 3/3 1000 м
[Cu med, cong Ci fib]
+25.5 +18.8 66 +30 +37 душно 1003.2 942.7
15 16.07 СВ 3 10 км 8/8 600 м
[Sc]
+24.0 +17.7 68 +28 +28 душно 1003.9 943.0
18 16.07 штиль 0 2000 м 9/9 600 м
[Sc]
+22.0 +17.3 75 +26 +26 душно 1006.1 944.7 +28.2
21 16.07 З 3 2000 м ясно +20.6 +17.4 82 +25 +25 комфорт 1007.2 945.4
00 17.07 З 3 2000 м ясно +21.9 +16.9 73 +26 +26 душно 1007.2 945.6
03 17.07 СЗ 1 50 км 1/1 1000 м
[Cu med, cong Ci fib]
+22.7 +15.4 63 +27 +28 душно 1007.5 946.1
06 17.07 штиль 0 50 км 3/3 1000 м
[Cu hum]
+26.7 +15.2 49 +29 +42 жарко 1007.5 946.9 +20.1
09 17.07 В 4 50 км 3/3 1000 м
[Cu hum]
+28.3 +16.3 48 +32 +41 душно 1006.2 946.0
12 17.07 штиль 0 10 км 6/6 600 м
[Cb cap]
+27.4 +16.1 50 +31 +37 душно 1006.2 945.7
15 17.07 штиль 0 10 км 8/8 600 м
[Cb cap]
+23.3 +16.8 67 +28 +29 душно 1007.3 946.0
18 17.07 штиль 0 2000 м ясно +21.2 +16.6 75 +25 +25 комфорт 1007.8 946.1 +28.6
21 17.07 штиль 0 2000 м ясно +19.3 +16.1 82 +21 +21 комфорт 1007.9 945.8
00 18.07 З 5 2000 м ясно +20.1 +15.2 73 +22 +22 комфорт 1007.1 945.1
03 18.07 штиль 0 50 км ясно +20.9 +15.1 69 +24 +26 комфорт 1007.2 945.4
06 18.07 СВ 1 50 км ясно +27.9 +8.5 30 +28 +43 жарко 1005.4 945.0 +18.8

 

Местоположение метеостанции Губа (Азербайджан): широта 41.37 долгота 48.52 высота над уровнем моря 552 м.

В архиве по умолчанию представлена погода в Губе за последнюю неделю. Архивные данные за месяц целиком и за предыдущие месяцы, начиная с января 2011 года, Вы можете получить, выбрав интересующий диапазон дат из раскрывающегося списка и нажав кнопку "Ввод!".


*Определитесь, кто Вы:
робот инопланетянин человек

Внимание! Время в таблицах - всемирное. Для получения местного времени необходимо прибавить поправку, которая равна 4 ч.

Смотрите также архив погоды в соседних городах и на ближайших метеорологических станциях:

Погода в Касумкенте (Дагестан, Россия) (45 км)
Погода в Ахты (Дагестан, Россия) (65 км)
Погода в Габале (Азербайджан) (70 км)
Погода в Дербенте (Дагестан, Россия) (80 км)
Погода в Шемахе (Азербайджан) (83 км)
Погода в Маразе (Азербайджан) (100 км)
Погода в Геокчае (Азербайджан) (103 км)
Погода в Шеках (Азербайджан) (114 км)
Погода в Курдамире (Азербайджан) (119 км)
Погода в Изберге (Дагестан, Россия) (138 км)

Пояснения к столбцам:

Ветер - указаны скорость ветра в м/с - средняя за 10 мин, порывы в срок и между сроками (в фигурных скобках) и направление, откуда дует ветер: С - северный, СВ - северо-восточный, В - восточный, ЮВ - юго-восточный, Ю - южный, ЮЗ - юго-западный, З - западный, СЗ - северо-западный.
Видимость - горизонтальная дальность видимости в метрах или километрах. При видимости от 1 до 10 км при отсутствии осадков обычно наблюдается дымка, при ухудшении видимости до 1 км и менее - туман. В сухую погоду видимость может ухудшаться дымом, пылью или мглою.
Явления - указаны атмосферные явления, наблюдавшиеся в срок или в последний час перед сроком; фигурными скобками обозначены явления, наблюдавшиеся между сроками (за 1-3 часа до срока); квадратными скобками обозначены град или гололедные отложения с указанием их диаметра в мм.
Облачность - указаны через наклонную черту общая и нижняя облачность в баллах и высота нижней границы облаков в метрах; квадратными скобками обозначены формы облаков: Ci - перистые, Cs - перисто-слоистые, Cc - перисто-кучевые, Ac - высококучевые, As - высокослоистые, Sc - слоисто-кучевые, Ns - слоисто-дождевые, Cu - кучевые, Cb - кучево-дождевые. Подробнее классификацию облаков см. в Атласе облаков (PDF).
T - Температура воздуха - температура, измеренная на высоте 2 м над землей.
Td - Температура точки росы - температура, при понижении до которой содержащийся в воздухе водяной пар достигнет насыщения.
f - Относительная влажность воздуха - влажноcть воздуха, измеренная на высоте 2 м над землей.
Te - Эффективная температура - температура, которую ощущает одетый по сезону человек в тени. Характеристика душности погоды. При расчете учитывается влияние влажности воздуха и скорости ветра на теплоощущения человека.
Tes - Эффективная температура на солнце - температура, которую ощущает человек, с поправкой на солнечный нагрев. Характеристика знойности погоды. Зависит от высоты солнца над горизонтом, облачности и скорости ветра. Ночью, в пасмурную погоду, а также при ветре 12 м/с и более поправка равна нулю.
P - Атмосферное давление - приведенное к уровню моря атмосферное давление.
Po - Атмосферное давление - измеренное на уровне метеостанции атмосферное давление.
Tmin - Минимальная температура - минимум температуры воздуха на высоте 2 м над землей.
Tmax - Максимальная температура - максимум температуры воздуха на высоте 2 м над землей.
R - Количество осадков - Количество выпавших осадков за период времени, мм. При наведении курсора мыши на число - период времени, за который выпало указанное количество осадков.
R24 - Количество осадков - Количество выпавших осадков за 24 часа, мм.
S - Снежный покров - Высота снежного покрова, см. При наведении курсора мыши на число - состояние снежного покрова и степень покрытия местности в баллах.